Location: Newark
(54.4000°N, 32.4500°E)
Time: 06:40:23
(UTC+00:00)

Envisat - Pass Details

Date: 23 January 2020
Orbit: 764 x 766 km, 98.1° (Epoch: 27 February)

Event Time Altitude Azimuth Distance (km) Brightness Sun altitude
Rises 04:02:39 0° 19° (NNE) 3,248 6.3 -15.7°
Reaches altitude 10° 04:05:08 10° 27° (NNE) 2,317 5.7 -15.3°
Maximum altitude 04:09:54 39° 96° (E) 1,146 4.6 -14.7°
Drops below altitude 10° 04:14:38 10° 165° (SSE) 2,299 5.9 -14.0°
Sets 04:17:04 0° 173° (S) 3,221 6.5 -13.7°
